Orbital Elements at Epoch 2459200.5 (2020-Dec-17.0) TDB
Reference: JPL 18 (heliocentric ecliptic J2000)
Element | Value | Uncertainty (1-sigma) | Units |
e | .1818565687937054 | 6.3268e-08 | |
a | 2.580591235168064 | 1.9148e-08 | au |
q | 2.11129376768129 | 1.6581e-07 | au |
i | 5.763705325525534 | 4.5743e-06 | deg |
node | 97.42767110373001 | 6.7658e-05 | deg |
peri | 56.4051975750121 | 6.8969e-05 | deg |
M | 153.8509715787571 | 1.3169e-05 | deg |
tp | 2458553.394641487375 (2019-Mar-10.89464149) | 5.4074e-05 | TDB |
period | 1514.179122003741 4.15 | 1.6853e-05 4.614e-08 | d yr |
n | .2377525847296093 | 2.6462e-09 | deg/d |
Q | 3.049888702654838 | 2.263e-08 | au |
|
| | Orbit Determination Parameters
Additional Information
|